City's sites:

title views votes rating creation
?never been here 414 12 (3.08)  2010-02-07
?pastel negro 641 14 (2.50)  2010-02-07
?dizzy 305 8 (3.38)  2010-02-07
?two pictures from my desktop 894 16 (3.69)  2010-02-09
?broken clock realizes he is the last object left in the ... 456 10 (3.20)  2010-02-09
?heroes of old 618 19 (3.74)  2010-02-09
?mr. price 473 8 (3.25)  2010-02-09
?Music I Like - Part 1 653 10 (3.60)  2010-02-10
?Music I Like - Part 2 413 13 (3.54)  2010-02-10
?Music I Like - Part 3 571 13 (3.69)  2010-02-10
?Music I Like - Part 4 451 5 (3.20)  2010-02-10
?intense 587 9 (3.78)  2010-02-10
?oh SNAP 822 9 (3.22)  2010-02-10
?Music I Like - Part 5 584 9 (3.56)  2010-02-10
?SignlanguageTMND 435 14 (3.86)  2010-02-10
?lol internet (refresh) 669 6 (3.17)  2010-02-12
?Dumbeldore kills snape! 3,394 67 (4.03)  2010-02-12
?prairiedogeric10 tribute site 738 23 (3.96)  2010-02-13
?Legolewdite fan club 1,325 38 (3.87)  2010-02-13
?Connery retires 445 13 (3.85)  2010-02-13
?TOURNEY4: lol internet 594 7 (2.43)  2010-02-15
?Speed Deemon 1,087 23 (3.74)  2010-02-23
?Tribute: ASSCOCKredux 1,732 64 (3.91)  2010-02-23
?some light jazz with Robert De Niro 897 12 (3.50)  2010-02-23
?In What Language 1,484 34 (3.74)  2010-02-24
?go go go go go go go go go go go go go go go go ... 2,104 23 (3.74)  2010-02-24
?FEARCONDOM'S FAMILY Q U I L T 625 11 (3.55)  2010-02-24
?TEST 826 19 (3.84)  2010-02-26
?....someday, oh dream maker DUNANANANAN... 5,151 148 (3.96)  2010-02-28
?DOUGH FUNNIE HOMO DICKS 717 12 (3.58)  2010-03-01
?Using a concrete bricK 618 17 (3.82)  2010-03-01
?I had sex with a Kayan Tribe woman, little help plea... 1,051 11 (3.36)  2010-03-03
?Adventure 4 1,153 18 (3.61)  2010-03-03
?the standoff 490 9 (3.67)  2010-03-03
?alley children 562 11 (3.91)  2010-03-05
?Steven Seagal isn't impressed 9,936 181 (4.17)  2010-03-05
?Daunting Steps 232 7 (3.00)  2010-03-05
?Cruel and Unusual 6,281 163 (4.24)  2010-03-09
?DancehallTMND 487 10 (3.80)  2010-03-12
?FUCK OUT MY FACE 502 5 (2.60)  2010-03-18
?16, no dither 834 18 (3.94)  2010-03-20
?say hi to my girlfriend 1,069 16 (3.81)  2010-03-21
?TT 696 16 (3.88)  2010-03-23
?jimmm thinks about his next five 730 20 (3.80)  2010-03-24
?THE TELEKINETIC MAN 335 18 (3.50)  2010-03-25
?. 134 7 (2.71)  2010-03-26
?1! 389 17 (3.35)  2010-03-26
?Fake crocodile takes it to the limit one more time 626 9 (3.67)  2010-03-27
?croctheme 411 4 (3.25)  2010-03-27
?crocodile site 510 6 (3.50)  2010-03-27
?CROC MAKES A 187 LOOK EASY 216 6 (3.33)  2010-03-27
?New Croc SIte 181 5 (3.40)  2010-03-27
?L 449 19 (3.63)  2010-03-27
?crocodile sIte 367 10 (3.50)  2010-03-30
?Pleasant® 425 8 (3.38)  2010-03-30
?A Lovely Ride 312 13 (3.85)  2010-03-30
?It's glorious today 299 14 (3.64)  2010-04-01
?Na - Zu 446 10 (3.70)  2010-04-01
?WHO'NOWOWOWOW 427 5 (2.60)  2010-04-03
?part of your world 228 5 (3.00)  2010-04-04
?fff 187 4 (3.50)  2010-04-04
?FIve-star webiste 1,084 16 (1.94)  2010-04-04
?Captain Haddock 1,790 28 (3.86)  2010-04-04
?, 294 9 (3.33)  2010-04-05
?indnian 468 7 (2.71)  2010-04-05
?Ricky Manning tribute sIte will be Underway soon ! 260 3 (3.67)  2010-04-06
?Epic Domain Grab 245 6 (2.17)  2010-04-06
?retirement site 176 6 (2.83)  2010-04-06
?Paul newman doesn't drive a VAN 210 4 (3.00)  2010-04-06
?Vince McMan 404 7 (2.86)  2010-04-06
?LOL 345 5 (3.00)  2010-04-06
?wut 349 4 (2.75)  2010-04-06
?www.coachcarter.ytmnd.com 362 8 (1.88)  2010-04-06
?untitled 342 7 (2.14)  2010-04-09
?ExpirimennalTYTMND 418 8 (3.38)  2010-04-09
?jioejejejoijiojiojioejiejoijeoj 461 14 (3.79)  2010-04-09
?Jake Steele catches a fly ball 394 4 (3.50)  2010-04-10
?Jake Steele forgets the milk 377 3 (3.00)  2010-04-10
?Jake Steele just found his watch 365 4 (3.25)  2010-04-10
?Jake Steele grows up a bit 481 7 (2.86)  2010-04-10
?KRA2008 407 5 (2.60)  2010-04-10
?Fuck the world 832 26 (3.88)  2010-04-16
?a sexual guy 543 10 (2.30)  2010-05-12
?well 375 4 (4.25)  2010-09-03
?gay site you can watch while thinking about stuff 1,692 15 (4.07)  2010-09-13
?site dedicated to great warchief 1,333 12 (3.58)  2010-09-16
?38388 903 8 (3.88)  2010-09-16
?watching the world buzz by 559 4 (3.50)  2010-09-16
?what now 1,517 17 (3.94)  2010-09-16